Weather History for BGAA - March, 2014

Change the Weather History Date:

Sunday, March 2, 2014

  Actual Average Record
Temperature  
Mean Temperature 36 °F -  
Max Temperature 75 °F - - ()
Min Temperature -2 °F - - ()
Degree Days  
Heating Degree Days 28    
Moisture  
Dew Point 9 °F    
Average Humidity 91    
Maximum Humidity 100    
Minimum Humidity 72    
Precipitation  
Precipitation 0.00 in - - ()
Sea Level Pressure  
Sea Level Pressure 29.79 in    
Wind  
Wind Speed 6 mph ()    
Max Wind Speed 16 mph    
Max Gust Speed -    
Visibility 7.8 miles    
Events Snow    
T = Trace of Precipitation, MM = Missing Value Source: Averaged Metar Reports

Daily Weather History Graph

Daily Weather History Graph

Search for Another Location

Airport or City:

Trip Planner

Search our weather history database for the weather conditions in past years. The results will help you decide how hot, cold, wet, or windy it might be!

Date:

Astronomy

Mar. 02, 2014 Rise Set
Actual Time 7:48 AM WGT 5:39 PM WGT
Civil Twilight 6:50 AM WGT 6:37 PM WGT
Nautical Twilight 5:44 AM WGT 7:44 PM WGT
Astronomical Twilight 4:34 AM WGT 8:55 PM WGT
Moon 7:22 AM WGT (3/2) 8:41 PM WGT (3/2)
Length of Visible Light 11h 47m
Length of Day
9h 50m
New Moon, 2% of the Moon is Illuminated
Mar 2
New Moon
Mar 8
First Quarter
Mar 16
Full
Mar 23
Last Quarter
Mar 30
New

Hourly Weather History & Observations

Time (WGT) Temp. Windchill Dew Point Humidity Pressure Visibility Wind Dir Wind Speed Gust Speed Precip Events Conditions
12:00 AM 12 °F - 9 °F 82% 29.80 in 22 mi SW 3.5 mph - - Snow Light Snow
12:20 AM 12.2 °F 0.7 °F 12.2 °F 100% 29.77 in 6.2 mi SW 8.1 mph - N/A Snow Light Snow
12:50 AM 12.2 °F -0.2 °F 12.2 °F 100% 29.80 in 6.2 mi SW 9.2 mph - N/A Snow Light Snow
1:00 AM 11 °F - 9 °F 86% 29.82 in 22 mi SSW 4.6 mph - -   Ice Crystals
1:20 AM 12.2 °F -1.0 °F 10.4 °F 92% 29.80 in 6.2 mi SW 10.4 mph - N/A Snow Light Snow
1:50 AM 12.2 °F -1.0 °F 10.4 °F 92% 29.80 in 6.2 mi SW 10.4 mph - N/A Snow Light Snow
2:00 AM 11 °F - 9 °F 85% 29.84 in 14 mi SSW 3.5 mph - - Snow Light Snow
2:20 AM 12.2 °F -1.0 °F 10.4 °F 92% 29.83 in 6.2 mi SSW 10.4 mph - N/A Snow Light Snow
2:50 AM 12.2 °F -0.2 °F 10.4 °F 92% 29.83 in 6.2 mi SSW 9.2 mph - N/A Snow Light Snow
3:00 AM 11 °F - 8 °F 84% 29.85 in 4 mi SSW 3.5 mph - - Snow Light Snow
3:20 AM 10.4 °F -3.3 °F 10.4 °F 100% 29.83 in 6.2 mi SSW 10.4 mph - N/A Snow Light Snow
3:50 AM 10.4 °F -1.5 °F 10.4 °F 100% 29.83 in 6.2 mi SW 8.1 mph - N/A Snow Light Snow Showers
4:00 AM 10 °F - 8 °F 88% 29.87 in 15 mi SSW 3.5 mph - -   Ice Crystals
4:20 AM 10.4 °F -0.4 °F 10.4 °F 100% 29.83 in 6.2 mi SW 6.9 mph - N/A Snow Light Snow Showers
4:50 AM 10.4 °F -1.5 °F 10.4 °F 100% 29.83 in 6.2 mi WSW 8.1 mph - N/A Snow Light Snow Showers
5:00 AM 10 °F - 6 °F 79% 29.87 in 11 mi WSW 2.3 mph - - Snow Light Snow
5:20 AM 10.4 °F -2.4 °F 10.4 °F 100% 29.86 in 6.2 mi WSW 9.2 mph - N/A Snow Light Snow Showers
5:50 AM 10.4 °F -1.5 °F 10.4 °F 100% 29.86 in 6.2 mi WSW 8.1 mph - N/A Snow Light Snow
6:00 AM 9 °F - 7 °F 85% 29.88 in 16 mi SW 2.3 mph - - Snow Light Snow
6:20 AM 10.4 °F -1.5 °F 8.6 °F 92% 29.86 in 6.2 mi WSW 8.1 mph - N/A Snow Light Snow
6:50 AM 10.4 °F -0.4 °F 8.6 °F 92% 29.86 in 6.2 mi WSW 6.9 mph - N/A Snow Light Snow
7:00 AM 9 °F - 4 °F 72% 29.88 in 14 mi WSW 2.3 mph - - Snow Light Snow
7:20 AM 10.4 °F -0.4 °F 8.6 °F 92% 29.86 in 6.2 mi WSW 6.9 mph - N/A Snow Light Snow
7:50 AM 8.6 °F -1.3 °F 8.6 °F 100% 29.86 in 6.2 mi WSW 5.8 mph - N/A Snow Light Snow Showers
8:00 AM 9 °F - 6 °F 80% 29.89 in 22 mi SW 1.2 mph - - Snow Light Snow
8:20 AM 8.6 °F -1.3 °F 8.6 °F 100% 29.86 in 6.2 mi SW 5.8 mph - N/A Snow Light Snow Showers
8:50 AM 8.6 °F -1.3 °F 6.8 °F 92% 29.86 in 6.2 mi SW 5.8 mph - N/A Snow Light Snow Showers
9:00 AM 8 °F - 5 °F 83% 29.88 in 25 mi SW 1.2 mph - - Snow Light Snow Showers
9:20 AM 8.6 °F -3.7 °F 6.8 °F 92% 29.86 in 6.2 mi SW 8.1 mph - N/A Snow Light Snow Showers
9:50 AM 10.4 °F -2.4 °F 8.6 °F 92% 29.86 in 6.2 mi WSW 9.2 mph - N/A Snow Light Snow Showers
10:00 AM 9 °F - 6 °F 82% 29.88 in 22 mi SW 2.3 mph - - Snow Light Snow Showers
10:20 AM 10.4 °F 0.8 °F 10.4 °F 100% 29.86 in 6.2 mi SW 5.8 mph - N/A Snow Light Snow Showers
10:50 AM 10.4 °F -0.4 °F 10.4 °F 100% 29.86 in 6.2 mi WSW 6.9 mph - N/A Snow Light Snow
11:00 AM 9 °F - 6 °F 84% 29.87 in 17 mi SW 1.2 mph - - Snow Light Snow
11:20 AM 10.4 °F -0.4 °F 8.6 °F 92% 29.83 in 6.2 mi WSW 6.9 mph - N/A Snow Light Snow
11:50 AM 10.4 °F -3.3 °F 8.6 °F 92% 29.83 in 6.2 mi WSW 10.4 mph - N/A Snow Light Snow
12:00 PM -2 °F - -5 °F 79% 29.86 in 28 mi WSW 2.3 mph - - Snow Light Snow
12:20 PM 10.4 °F -2.4 °F 8.6 °F 92% 29.83 in 6.2 mi WSW 9.2 mph - N/A Snow Light Snow Grains
12:50 PM 10.4 °F -2.4 °F 8.6 °F 92% 29.80 in 6.2 mi West 9.2 mph - N/A Snow Light Snow Showers
1:00 PM 10 °F - 7 °F 83% 29.84 in 19 mi West 2.3 mph - - Snow Light Snow
1:20 PM 10.4 °F -0.4 °F 10.4 °F 100% 29.80 in 6.2 mi West 6.9 mph - N/A Snow Light Snow Showers
1:50 PM 10.4 °F -0.4 °F 10.4 °F 100% 29.80 in 6.2 mi WNW 6.9 mph - N/A Snow Light Snow Grains
2:00 PM 10 °F - 8 °F 88% 29.82 in 22 mi WNW 2.3 mph - - Snow Light Snow
2:20 PM 10.4 °F -3.3 °F 10.4 °F 100% 29.77 in 6.2 mi West 10.4 mph - N/A Snow Light Snow
2:50 PM 10.4 °F -4.1 °F 10.4 °F 100% 29.77 in 6.2 mi West 11.5 mph - N/A Snow Light Snow
3:00 PM 10 °F - 8 °F 88% 29.80 in 19 mi West 3.5 mph - - Snow Light Snow
3:20 PM 10.4 °F -2.4 °F 10.4 °F 100% 29.77 in 6.2 mi WNW 9.2 mph - N/A Snow Light Snow Showers
3:50 PM 10.4 °F -3.3 °F 10.4 °F 100% 29.77 in 6.2 mi West 10.4 mph - N/A Snow Light Snow Showers
4:00 PM 10 °F - 8 °F 87% 29.79 in 16 mi West 3.5 mph - -   Light Ice Pellets
4:20 PM 12.2 °F -0.2 °F 10.4 °F 92% 29.74 in 6.2 mi WNW 9.2 mph - N/A Snow Light Snow Showers
4:50 PM 12.2 °F -1.0 °F 10.4 °F 92% 29.74 in 6.2 mi WNW 10.4 mph - N/A Snow Light Snow
5:00 PM 11 °F - 9 °F 87% 29.76 in 5 mi West 2.3 mph - - Snow Light Snow
5:20 PM 12.2 °F -1.8 °F 10.4 °F 92% 29.74 in 6.2 mi WNW 11.5 mph - N/A Snow Light Snow Showers
5:50 PM 12.2 °F 0.7 °F 10.4 °F 92% 29.71 in 6.2 mi West 8.1 mph - N/A Snow Light Snow Showers
6:00 PM 11 °F - 9 °F 87% 29.74 in 18 mi WNW 2.3 mph - - Snow Light Snow
6:20 PM 12.2 °F 0.7 °F 8.6 °F 85% 29.71 in 6.2 mi West 8.1 mph - N/A   Overcast
6:50 PM 12.2 °F 1.7 °F 8.6 °F 85% 29.71 in 6.2 mi West 6.9 mph - N/A   Overcast
7:00 PM 11 °F - 9 °F 86% 29.72 in 31 mi West 2.3 mph - - Snow Light Snow Showers
7:20 PM 12.2 °F -0.2 °F 8.6 °F 85% 29.68 in 6.2 mi West 9.2 mph - N/A Snow Light Snow Showers
7:50 PM 12.2 °F -1.0 °F 8.6 °F 85% 29.68 in 6.2 mi WSW 10.4 mph - N/A Snow Light Snow Showers
8:00 PM 11 °F - 9 °F 86% 29.70 in 31 mi WSW 2.3 mph - - Snow Light Snow Showers
8:20 PM 12.2 °F -1.8 °F 8.6 °F 85% 29.65 in 6.2 mi West 11.5 mph - N/A   Overcast
8:50 PM 12.2 °F -3.7 °F 10.4 °F 92% 29.65 in 6.2 mi West 15.0 mph - N/A Snow Light Snow Showers
9:00 PM 12 °F - 9 °F 84% 29.69 in 22 mi West 4.6 mph - - Snow Light Snow Showers
9:20 PM 12.2 °F -3.1 °F 10.4 °F 92% 29.65 in 6.2 mi West 13.8 mph - N/A Snow Light Snow Showers
9:50 PM 14.0 °F -0.2 °F 12.2 °F 93% 29.65 in 6.2 mi West 12.7 mph - N/A Snow Light Snow Showers
10:00 PM 12 °F - 9 °F 82% 29.67 in 22 mi WSW 4.6 mph - - Snow Light Snow
10:20 PM 14.0 °F 0.5 °F 12.2 °F 93% 29.62 in 6.2 mi West 11.5 mph - N/A Snow Light Snow
10:50 PM 14.0 °F -2.0 °F 12.2 °F 93% 29.62 in 6.2 mi West 16.1 mph - N/A Snow Light Snow
11:00 PM 13 °F - 10 °F 84% 29.65 in 22 mi West 5.8 mph - - Snow Light Snow
11:20 PM 14.0 °F -1.4 °F 12.2 °F 93% 29.62 in 6.2 mi West 15.0 mph - N/A Snow Light Snow
11:50 PM 14.0 °F -2.0 °F 12.2 °F 93% 29.59 in 6.2 mi WNW 16.1 mph - N/A Snow Light Snow